Location: Home
(42.5358°N, 72.7383°W)
Time: 15:55:10
(UTC-05:00)

N. Korean satellite - Pass Details

Date: 24 October 2021
Orbit: 446 x 495 km, 97.3° (Epoch: 07 December)

Event Time Altitude Azimuth Distance (km) Brightness Sun altitude
Rises 06:17:44 0° 9° (N) 2,594 10.3 -11.2°
Reaches altitude 10° 06:19:50 10° 7° (N) 1,704 9.3 -10.8°
Maximum altitude 06:23:29 69° 285° (WNW) 533 6.5 -10.1°
Drops below altitude 10° 06:27:04 10° 201° (SSW) 1,672 9.1 -9.5°
Sets 06:29:07 0° 199° (SSW) 2,541 10.1 -9.1°
